CO3D D

Last updated on Mon Jul 28 2025 00:02:07 GMT+0000 (Coordinated Universal Time)

1 64902U 25156D 25207.97321348 -.00000070 00000+0 00000+0 0 9999 2 64902 97.4505 286.1617 0004277 182.0413 350.8855 15.22156459 119

Satellite not in orbit

CO3D D